CW3999 Weather Reports


Display with metric or nautical units.
time (UTC)temp
F
wind
direction
speed
MPH
gust
MPH
rain 1hr
in
rain 24hr
in
rain mn
in
humidity
%
barometer
mb
20260503201602 84 236 0.0 0.0 0.00 0.00 0.00 47 1008.2
20260503201107 84 236 0.0 0.0 0.00 0.00 0.00 45 1008.2
20260503200602 84 236 0.0 0.0 0.00 0.00 0.00 45 1008.3
20260503200104 84 236 0.0 0.0 0.00 0.00 0.00 45 1008.4
20260503195603 83 236 0.0 0.0 0.00 0.00 0.00 48 1008.5
20260503195103 82 236 0.0 0.0 0.00 0.00 0.00 45 1008.6
20260503194104 82 236 0.0 0.0 0.00 0.00 0.00 46 1008.6
20260503193101 82 236 0.0 0.0 0.00 0.00 0.00 46 1008.7
20260503192602 83 236 0.0 0.0 0.00 0.00 0.00 47 1008.8
20260503192103 83 236 0.0 0.0 0.00 0.00 0.00 48 1008.8
20260503191601 81 236 0.0 0.0 0.00 0.00 0.00 48 1008.9
20260503191102 81 236 0.0 0.0 0.00 0.00 0.00 47 1008.9
20260503190601 80 236 0.0 0.0 0.00 0.00 0.00 47 1009.0
20260503190103 80 236 0.0 0.0 0.00 0.00 0.00 46 1009.0
20260503185053 79 236 0.0 0.0 0.00 0.00 0.00 46 1009.1
20260503184555 79 236 0.0 0.0 0.00 0.00 0.00 47 1009.2
20260503184051 78 236 0.0 0.0 0.00 0.00 0.00 49 1009.3
20260503183539 78 236 0.0 0.0 0.00 0.00 0.00 47 1009.4
20260503183037 77 236 0.0 0.0 0.00 0.00 0.00 48 1009.5
20260503181532 76 235 0.0 0.0 0.00 0.00 0.00 50 1009.6
20260503181031 76 235 0.0 0.0 0.00 0.00 0.00 49 1009.6
20260503180531 75 235 0.0 0.0 0.00 0.00 0.00 49 1009.6
20260503180030 75 235 0.0 0.0 0.00 0.00 0.00 50 1009.7
20260503175031 75 235 0.0 0.0 0.00 0.00 0.00 51 1009.8
20260503174530 74 232 0.0 0.0 0.00 0.00 0.00 50 1009.8
20260503174030 74 225 0.0 0.0 0.00 0.00 0.00 51 1009.8
20260503173532 74 211 0.0 0.0 0.00 0.00 0.00 51 1009.9
20260503173018 74 211 0.0 0.0 0.00 0.00 0.00 51 1009.9
20260503172520 73 211 0.0 0.0 0.00 0.00 0.00 51 1009.9
20260503172001 73 212 0.0 0.0 0.00 0.00 0.00 48 1010.0
20260503171008 72 212 0.0 0.0 0.00 0.00 0.00 49 1010.0
20260503170504 71 212 0.0 0.0 0.00 0.00 0.00 48 1010.0
20260503150502 56 204 0.0 0.0 0.00 0.00 0.00 100 1010.5
20260503131001 49 204 0.0 0.0 0.00 0.00 0.00 100 1010.2
20260503130508 49 204 0.0 0.0 0.00 0.00 0.00 100 1010.2
20260503110502 51 204 0.0 0.0 0.00 0.00 0.00 100 1010.4
20260503090503 53 204 0.0 0.0 0.00 0.00 0.00 100 1010.7
20260503081502 55 204 0.0 0.0 0.00 0.00 0.00 100 1010.8
20260503081003 55 204 0.0 0.0 0.00 0.00 0.00 100 1010.7
20260503080504 55 204 0.0 0.0 0.00 0.00 0.00 100 1010.8
20260503072503 55 204 0.0 0.0 0.00 0.00 0.00 100 1010.8
20260503072001 56 204 0.0 0.0 0.00 0.00 0.00 100 1010.8
20260503071502 56 204 0.0 0.0 0.00 0.00 0.00 100 1010.8
20260503054503 60 204 0.0 0.0 0.00 0.00 0.00 100 1010.8
20260503053504 60 204 0.0 0.0 0.00 0.00 0.00 100 1010.9
20260503053002 60 204 0.0 0.0 0.00 0.00 0.00 100 1010.8
20260503052502 60 204 0.0 0.0 0.00 0.00 0.00 100 1010.7
20260503052002 60 204 0.0 0.0 0.00 0.00 0.00 100 1010.8
20260503051502 61 204 0.0 0.0 0.00 0.00 0.00 100 1011.0
20260503051002 61 204 0.0 0.0 0.00 0.00 0.00 100 1011.2
20260503050502 61 204 0.0 0.0 0.00 0.00 0.00 100 1011.0
20260503044946 61 204 0.0 0.0 0.00 0.00 0.00 100 1010.8
20260503044447 62 204 0.0 0.0 0.00 0.00 0.00 100 1010.7
20260503043931 62 204 0.0 0.0 0.00 0.00 0.00 100 1010.8
20260503043430 62 204 0.0 0.0 0.00 0.00 0.00 100 1010.8
20260503042430 62 204 0.0 0.0 0.00 0.00 0.00 100 1010.9
20260503041930 62 204 0.0 0.0 0.00 0.00 0.00 100 1011.0
20260503041429 62 204 0.0 0.0 0.00 0.00 0.00 100 1011.1
20260503040931 62 204 0.0 0.0 0.00 0.00 0.00 100 1011.0
20260503034934 63 204 0.0 0.0 0.00 0.00 0.00 100 1010.7
20260503033930 63 204 0.0 0.0 0.00 0.00 0.00 100 1010.6
20260503033430 63 204 0.0 0.0 0.00 0.00 0.00 100 1010.5
20260503032930 63 204 0.0 0.0 0.00 0.00 0.00 4 1010.5
20260503032431 64 204 0.0 0.0 0.00 0.00 0.00 8 1010.4
20260503031931 64 200 0.0 0.0 0.00 0.00 0.00 12 1010.5
20260503031430 64 200 0.0 0.0 0.00 0.00 0.00 13 1010.4
20260503030929 64 200 0.0 0.0 0.00 0.00 0.00 15 1010.5
20260503030429 64 200 0.0 0.0 0.00 0.00 0.00 16 1010.6
20260503025930 64 200 0.0 0.0 0.00 0.00 0.00 15 1010.3
20260503025431 65 200 0.0 0.0 0.00 0.00 0.00 16 1010.5
20260503024930 65 200 0.0 0.0 0.00 0.00 0.00 18 1010.5
20260503024430 65 200 0.0 0.0 0.00 0.00 0.00 20 1010.5
20260503023430 65 200 0.0 0.0 0.00 0.00 0.00 25 1010.5
20260503022922 66 200 0.0 0.0 0.00 0.00 0.00 26 1010.5
20260503022423 66 201 0.0 0.0 0.00 0.00 0.00 28 1010.5
20260503021922 67 196 0.0 0.0 0.00 0.00 0.00 31 1010.5
20260503021421 67 250 0.0 0.0 0.00 0.00 0.00 27 1010.5
20260503020921 68 336 0.0 0.0 0.00 0.00 0.00 28 1010.5
20260503020422 68 333 0.0 0.0 0.00 0.00 0.00 27 1010.2
20260503015921 68 333 0.0 0.0 0.00 0.00 0.00 29 1009.9
20260503014919 68 333 0.0 0.0 0.00 0.00 0.00 30 1009.8
20260503014414 68 333 0.0 0.0 0.00 0.00 0.00 32 1009.7
20260503013915 68 333 0.0 0.0 0.00 0.00 0.00 36 1009.7
20260503013415 69 333 0.0 0.0 0.00 0.00 0.00 36 1009.8
20260503012911 69 333 0.0 0.0 0.00 0.00 0.00 40 1009.8
20260503012401 69 333 0.0 0.0 0.00 0.00 0.00 43 1009.7
20260503011404 70 333 0.0 0.0 0.00 0.00 0.00 42 1009.7
20260503010904 70 333 0.0 0.0 0.00 0.00 0.00 47 1009.7
20260503010402 70 333 0.0 0.0 0.00 0.00 0.00 48 1009.7
20260503005404 70 333 0.0 0.0 0.00 0.00 0.00 51 1009.6
20260503004903 70 333 0.0 0.0 0.00 0.00 0.00 50 1009.6
20260503004404 71 333 0.0 0.0 0.00 0.00 0.00 50 1009.6
20260503003903 71 333 0.0 0.0 0.00 0.00 0.00 50 1009.6
20260503003404 71 333 0.0 0.0 0.00 0.00 0.00 48 1009.7
20260503002403 71 333 0.0 0.0 0.00 0.00 0.00 50 1009.6
20260503001903 71 333 0.0 0.0 0.00 0.00 0.00 52 1009.7
20260503001402 71 333 0.0 0.0 0.00 0.00 0.00 52 1009.7
20260503000903 71 333 0.0 0.0 0.00 0.00 0.00 52 1009.8
20260503000404 71 333 0.0 0.0 0.00 0.00 0.00 53 1009.8
20260502235902 71 333 0.0 0.0 0.00 0.00 0.00 52 1009.8
20260502235402 71 333 0.0 0.0 0.00 0.00 0.00 54 1009.9
20260502234402 71 333 0.0 0.0 0.00 0.00 0.00 54 1010.0
20260502233902 71 333 0.0 0.0 0.00 0.00 0.00 54 1010.0
20260502233402 72 333 0.0 0.0 0.00 0.00 0.00 54 1010.2
20260502232904 72 333 0.0 0.0 0.00 0.00 0.00 54 1010.2
20260502232402 72 333 0.0 0.0 0.00 0.00 0.00 54 1010.3
20260502231903 72 333 0.0 0.0 0.00 0.00 0.00 53 1010.4
20260502231404 72 333 0.0 0.0 0.00 0.00 0.00 54 1010.5
20260502230903 72 333 0.0 0.0 0.00 0.00 0.00 54 1010.5
20260502230403 72 333 0.0 0.0 0.00 0.00 0.00 54 1010.6
20260502225403 71 333 0.0 0.0 0.00 0.00 0.00 53 1010.8
20260502224903 71 333 0.0 0.0 0.00 0.00 0.00 53 1010.8
20260502224403 70 333 0.0 0.0 0.00 0.00 0.00 53 1010.8
20260502223902 70 333 0.0 0.0 0.00 0.00 0.00 52 1011.0
20260502222901 69 333 0.0 0.0 0.00 0.00 0.00 53 1011.2
20260502221902 69 333 0.0 0.0 0.00 0.00 0.00 51 1011.2
20260502221403 69 333 0.0 0.0 0.00 0.00 0.00 52 1011.4
20260502220902 68 333 0.0 0.0 0.00 0.00 0.00 53 1011.5
20260502220401 68 334 0.0 0.0 0.00 0.00 0.00 51 1011.5
20260502215904 67 334 0.0 0.0 0.00 0.00 0.00 53 1011.6
20260502215402 68 334 0.0 0.0 0.00 0.00 0.00 52 1011.7
20260502214903 67 334 0.0 0.0 0.00 0.00 0.00 50 1011.7
20260502214402 67 334 0.0 0.0 0.00 0.00 0.00 50 1011.7
20260502213903 67 334 0.0 0.0 0.00 0.00 0.00 38 1011.8
20260502213401 65 334 0.0 0.0 0.00 0.00 0.00 49 1011.9
20260502212901 65 334 0.0 0.0 0.00 0.00 0.00 46 1012.0
20260502212401 65 334 0.0 0.0 0.00 0.00 0.00 39 1012.1
20260502211904 65 334 0.0 0.0 0.00 0.00 0.00 39 1012.2
20260502211404 64 334 0.0 0.0 0.00 0.00 0.00 47 1012.3
20260502210902 65 334 0.0 0.0 0.00 0.00 0.00 50 1012.3
20260502210403 66 332 0.0 0.0 0.00 0.00 0.00 42 1012.4
20260502205902 64 332 0.0 0.0 0.00 0.00 0.00 40 1012.5
20260502204904 64 332 0.0 0.0 0.00 0.00 0.00 43 1012.6
20260502203902 64 332 0.0 0.0 0.00 0.00 0.00 38 1012.8
20260502203402 63 332 0.0 0.0 0.00 0.00 0.00 27 1012.9
20260502202902 62 332 0.0 0.0 0.00 0.00 0.00 31 1012.9